Flag Weather past 2 weeks in Tarnów, Poland

Now
44 °F

Fog.


Feels Like: 44 °F
Forecast: 33 / 50 °F
Wind: 2 mph from Northwest

Location: Tarnow

Current Time: Oct 31, 2014 at 10:58:54 AM

Latest Report: Oct 31, 2014 at 10:00 AM


Visibility: 2 mi

Pressure: 30.40 "Hg

Humidity: 88%

Dew point: 41 °F

Location of TarnówLocation

Historic Weather in Tarnów — Graph

°F

Tarnów temperature yesterday

Maximum temperature yesterday: 50 °F (at 2:00 PM)
Minimum temperature yesterday: 28 °F (at 7:00 AM)
Average temperature yesterday: 38 °F

Past Weeks' High & Low Weather Summary

 TemperatureHumidityPressure
High66 °F (Oct 19, 2:00 PM)100% (Oct 26, 5:00 AM)30.55 "Hg (Oct 26, 5:00 AM)
Low28 °F (Oct 30, 7:00 AM)55% (Oct 19, 3:00 PM)29.57 "Hg (Oct 22, 6:00 AM)
Average44 °F89%30.15 "Hg
* Reported Oct 16 10:00 AM — Oct 31 9:00 AM, Tarnów, Weather by CustomWeather, © 2014

Note: Actual official high and low records may vary slightly from our data, if they occured in-between our weather recording intervals... More about our weather records

Advertising

Tarnów weather history for previous 24 hours

 ConditionsComfort  
Time TempWeatherWind HumidityBarometerVisibility
9:00 AM
Oct 31
44 °FFog.1 mph92%30.40 "Hg2 mi
8:00 AM43 °FFog.1 mph96%30.38 "Hg1 mi
7:00 AM41 °FFog.No wind96%30.37 "Hg1 mi
6:00 AM41 °FFog.No wind95%30.37 "Hg1 mi
5:00 AM40 °FFog.1 mph93%30.36 "Hg1 mi
4:00 AM42 °FFog.1 mph91%30.35 "Hg1 mi
3:00 AM42 °FFog.1 mph89%30.35 "Hg2 mi
2:00 AM43 °FFog.1 mph90%30.35 "Hg2 mi
1:00 AM42 °FFog.1 mph97%30.36 "Hg2 mi
12:00 AM40 °FFog.No wind98%30.37 "Hg2 mi
11:00 PM
Oct 30
39 °FFog.No wind98%30.36 "Hg2 mi
10:00 PM38 °FFog.No wind98%30.36 "Hg1 mi
9:00 PM35 °FFog.No wind97%30.36 "Hg1 mi
8:00 PM34 °FFog.No wind96%30.35 "Hg1 mi
7:00 PM35 °FFog.No wind94%30.34 "Hg2 mi
6:00 PM37 °FFog.1 mph91%30.33 "Hg3 mi
5:00 PM40 °FFog.1 mph84%30.31 "Hg4 mi
4:00 PM47 °FFog.No wind72%30.28 "Hg4 mi
3:00 PM50 °FPassing clouds.1 mph62%30.28 "Hg6 mi
2:00 PM50 °FPassing clouds.2 mph61%30.28 "Hg6 mi
1:00 PM50 °FPassing clouds.2 mph61%30.28 "Hg7 mi
12:00 PM49 °FPassing clouds.2 mph63%30.29 "Hg7 mi
11:00 AM47 °FHaze.1 mph68%30.29 "Hg4 mi
10:00 AM44 °FFog.1 mph81%30.30 "Hg4 mi
Weather by CustomWeather, © 2014

See weather overviewHow to use our weather pages